UNISAT-6

Last updated on Tue Aug 25 2026 00:03:13 GMT+0000 (Coordinated Universal Time)

1 40012U 14033C 26236.23529250 .00002947 00000+0 31736-3 0 9999 2 40012 97.7961 27.7979 0044252 202.3185 157.6107 14.88521869656283
UTC large
Height (km)
Speed (km/s)
/
Latitude / Longitude
Inclination (degrees)
Orbital Period (minutes)
Azimuth
Elevation
Range (km)
Doppler Factor

Next 0 passes for location: London (51.5072 / 0.1276)

No passes found over London.
UNISAT-6